Location: Acheville
(50.3840°N, 2.8827°E)
Time: 19:22:25
(UTC+00:00)

Cosmos 2333 Rocket - Pass Details

Date: 24 October 2021
Orbit: 837 x 865 km, 70.8° (Epoch: 07 December)

Event Time Altitude Azimuth Distance (km) Brightness Sun altitude
Rises 18:21:32 0° 171° (S) 3,385 5.2 -17.0°
Reaches altitude 10° 18:24:18 10° 159° (SSE) 2,459 4.4 -17.4°
Enters shadow 18:27:31 24° 127° (SE) 1,684 3.3 -18.0°
